Prague, Czech Republic

9:19 AM CEST on July 26, 2017 (GMT +0200)
Ruzyne

Weather History for LKPR - November, 2012

Change the Weather History Date:

Sunday, November 25, 2012

  Actual Average Record
Temperature  
Mean Temperature 43 °F -  
Max Temperature 50 °F 36 °F 50 °F (2012)
Min Temperature 36 °F 27 °F 19 °F (2005)
Degree Days  
Heating Degree Days 22    
Moisture  
Dew Point 39 °F    
Average Humidity 86    
Maximum Humidity 100    
Minimum Humidity 69    
Precipitation  
Precipitation 0.00 in 0.03 in - ()
Sea Level Pressure  
Sea Level Pressure 30.02 in    
Wind  
Wind Speed 5 mph ()    
Max Wind Speed 15 mph    
Max Gust Speed -    
Visibility 4.7 miles    
Events Fog    
Averages and records for this station are not official NWS values.
T = Trace of Precipitation, MM = Missing Value Source: Averaged Metar Reports

Daily Weather History Graph

Daily Weather History Graph

Search for Another Location

Airport or City:

Trip Planner

Search our weather history database for the weather conditions in past years. The results will help you decide how hot, cold, wet, or windy it might be!

Date:

Astronomy

Nov. 25, 2012 Rise Set
Actual Time 7:32 AM CET 4:07 PM CET
Civil Twilight 6:55 AM CET 4:44 PM CET
Nautical Twilight 6:14 AM CET 5:24 PM CET
Astronomical Twilight 5:35 AM CET 6:03 PM CET
Moon 2:26 PM CET (11/25) 4:16 AM CET (11/25)
Length of Visible Light 9h 49m
Length of Day
8h 35m
Waxing Gibbous, 91% of the Moon is Illuminated
Nov 25
Waxing Gibbous
Nov 28
Full
Dec 6
Last Quarter
Dec 13
New
Dec 20
First Quarter

Hourly Weather History & Observations

Time (CET) Temp. Windchill Dew Point Humidity Pressure Visibility Wind Dir Wind Speed Gust Speed Precip Events Conditions
12:00 AM 37.4 °F - 37.4 °F 100% 30.06 in 1.2 mi Variable 1.2 mph - N/A Fog Patches of Fog
12:13 AM 37.4 °F 34.9 °F 37.4 °F 100% 30.06 in 1.7 mi ESE 3.5 mph - N/A   Scattered Clouds
12:30 AM 37.4 °F 32.8 °F 37.4 °F 100% 30.06 in 2.5 mi East 5.8 mph - N/A   Partly Cloudy
1:00 AM 38 °F - 37 °F 97% 30.13 in 4 mi South 6.7 mph - - Fog Light Fog
1:00 AM 37.4 °F 31.4 °F 37.4 °F 100% 30.06 in 3.7 mi SE 8.1 mph - N/A   Partly Cloudy
1:30 AM 37.4 °F 32.8 °F 37.4 °F 100% 30.06 in 3.7 mi SSE 5.8 mph - N/A   Unknown
2:00 AM 37.4 °F 31.4 °F 35.6 °F 93% 30.04 in 4.3 mi SE 8.1 mph - N/A   Unknown
2:30 AM 37.4 °F 32.1 °F 35.6 °F 93% 30.04 in 5.6 mi SSE 6.9 mph - N/A   Unknown
3:00 AM 37.4 °F 32.1 °F 35.6 °F 93% 30.04 in 5.6 mi SE 6.9 mph - N/A   Mostly Cloudy
3:30 AM 37.4 °F 34.9 °F 35.6 °F 93% 30.04 in 5.6 mi ESE 3.5 mph - N/A   Overcast
4:00 AM 37.4 °F 33.8 °F 35.6 °F 93% 30.04 in 5.0 mi ESE 4.6 mph - N/A   Overcast
4:30 AM 37.4 °F 32.8 °F 37.4 °F 100% 30.04 in 5.0 mi ESE 5.8 mph - N/A   Overcast
5:00 AM 39.2 °F 35.0 °F 37.4 °F 93% 30.04 in 5.0 mi SE 5.8 mph - N/A   Overcast
5:30 AM 39.2 °F 35.0 °F 37.4 °F 93% 30.04 in 5.0 mi ESE 5.8 mph - N/A   Overcast
6:00 AM 39.2 °F - 37.4 °F 93% 30.06 in 5.6 mi Variable 1.2 mph - N/A   Overcast
6:30 AM 39.2 °F 34.2 °F 37.4 °F 93% 30.04 in 5.0 mi East 6.9 mph - N/A   Overcast
7:00 AM 39 °F - 37 °F 90% 30.07 in 5 mi ESE 8.9 mph - -   Mist
7:00 AM 39.2 °F 35.9 °F 37.4 °F 93% 30.01 in 5.0 mi ESE 4.6 mph - N/A   Overcast
7:30 AM 39.2 °F 37.0 °F 37.4 °F 93% 30.04 in 3.7 mi ENE 3.5 mph - N/A   Overcast
8:00 AM 39.2 °F 37.0 °F 37.4 °F 93% 30.04 in 3.7 mi South 3.5 mph - N/A   Overcast
8:30 AM 39.2 °F 37.0 °F 37.4 °F 93% 30.04 in 3.7 mi South 3.5 mph - N/A   Overcast
9:00 AM 41.0 °F - 37.4 °F 87% 30.04 in 3.7 mi SSE 2.3 mph - N/A   Overcast
9:30 AM 41.0 °F 37.1 °F 39.2 °F 93% 30.04 in 3.7 mi SSE 5.8 mph - N/A   Overcast
10:00 AM 41.0 °F 36.4 °F 39.2 °F 93% 30.04 in 4.3 mi South 6.9 mph - N/A   Overcast
10:30 AM 42.8 °F 40.1 °F 39.2 °F 87% 30.04 in 5.0 mi South 4.6 mph - N/A   Scattered Clouds
11:00 AM 44.6 °F 41.4 °F 41.0 °F 87% 30.04 in 6.2 mi South 5.8 mph - N/A   Scattered Clouds
11:30 AM 44.6 °F 40.7 °F 39.2 °F 81% 30.04 in 6.2 mi South 6.9 mph - N/A   Partly Cloudy
12:00 PM 46.4 °F 44.3 °F 41.0 °F 81% 30.01 in - SSE 4.6 mph - N/A   Clear
12:30 PM 46.4 °F 44.3 °F 41.0 °F 81% 30.01 in - SE 4.6 mph - N/A   Clear
1:00 PM 46 °F - 40 °F 74% 30.02 in 7 mi SSE 4.5 mph - -   Partly Cloudy
1:00 PM 46.4 °F 43.5 °F 41.0 °F 81% 29.98 in - SSE 5.8 mph - N/A   Clear
1:30 PM 46.4 °F 42.9 °F 41.0 °F 81% 29.98 in - SE 6.9 mph - N/A   Clear
2:00 PM 48.2 °F - 41.0 °F 76% 29.98 in - SE 4.6 mph - N/A   Clear
2:30 PM 48.2 °F - 41.0 °F 76% 29.98 in - Variable 1.2 mph - N/A   Clear
3:00 PM 48.2 °F - 41.0 °F 76% 29.98 in - Variable 2.3 mph - N/A   Clear
3:30 PM 46.4 °F 44.3 °F 41.0 °F 81% 29.98 in - ESE 4.6 mph - N/A   Clear
4:00 PM 46.4 °F 45.2 °F 39.2 °F 76% 29.98 in - East 3.5 mph - N/A   Clear
4:30 PM 46.4 °F 43.5 °F 41.0 °F 81% 29.98 in - SE 5.8 mph - N/A   Clear
5:00 PM 46.4 °F 42.9 °F 41.0 °F 81% 29.98 in - SSE 6.9 mph - N/A   Clear
5:30 PM 46.4 °F 45.2 °F 41.0 °F 81% 29.98 in - South 3.5 mph - N/A   Clear
6:00 PM 48.2 °F - 41.0 °F 76% 29.98 in - SSW 8.1 mph - N/A   Clear
6:30 PM 50.0 °F - 42.8 °F 76% 29.98 in - SSW 11.5 mph - N/A   Clear
7:00 PM 49 °F - 42 °F 69% 30.01 in 9 mi SW 8.9 mph - -   Overcast
7:00 PM 48.2 °F - 41.0 °F 76% 29.98 in - SSW 11.5 mph - N/A   Clear
7:30 PM 50.0 °F - 42.8 °F 76% 29.98 in 6.2 mi SSW 12.7 mph - N/A   Partly Cloudy
8:00 PM 50.0 °F - 41.0 °F 71% 29.98 in - SSW 15.0 mph - N/A   Clear
8:30 PM 48.2 °F - 41.0 °F 76% 30.01 in - SSW 13.8 mph - N/A   Clear
9:00 PM 48.2 °F - 39.2 °F 71% 30.01 in - SW 11.5 mph - N/A   Clear
9:30 PM 46.4 °F 42.9 °F 39.2 °F 76% 30.01 in - SW 6.9 mph - N/A   Clear
10:00 PM 44.6 °F 38.8 °F 39.2 °F 81% 30.01 in - SW 11.5 mph - N/A   Clear
10:30 PM 41.0 °F 33.9 °F 37.4 °F 87% 30.01 in - SW 12.7 mph - N/A   Clear
11:00 PM 42.8 °F 37.0 °F 37.4 °F 81% 30.01 in - SSW 10.4 mph - N/A   Clear
11:30 PM 42.8 °F 37.0 °F 35.6 °F 76% 30.04 in - SW 10.4 mph - N/A   Clear